URO970P EGHH-EHBK

Flight info

Callsign URO970P
Flight time N/A
Altitude 29000
Route SAM M140 DVR/N0413F230 L9 KONAN UL607 SPI DCT LNO
Aircraft A346/H-SDE2E3FGHIJ3J4J5M1RWXY/LB1D1

Departure

Time 2026-05-07 19:39
Airport Bournemouth Airport (EGHH)

Arrival

Time N/A
Airport Maastricht Aachen Airport (EHBK)
Time Latitude Longitude Altitude Speed Heading
2026-05-07 19:08 50.78587 -1.84117 54 ft 0 kts 165°
2026-05-07 19:24 50.78586 -1.84117 54 ft 0 kts 165°
2026-05-07 19:27 50.78557 -1.84105 51 ft 7 kts 165°
2026-05-07 19:28 50.78494 -1.84078 50 ft 12 kts 165°
2026-05-07 19:28 50.78397 -1.84039 54 ft 17 kts 166°
2026-05-07 19:28 50.78281 -1.83992 54 ft 7 kts 166°
2026-05-07 19:28 50.78257 -1.83982 48 ft 0 kts 165°
2026-05-07 19:35 50.78246 -1.83977 51 ft 9 kts 165°
2026-05-07 19:36 50.78124 -1.83927 54 ft 9 kts 166°
2026-05-07 19:36 50.78059 -1.83965 53 ft 14 kts 236°
2026-05-07 19:36 50.78033 -1.84098 51 ft 12 kts 256°
2026-05-07 19:36 50.78005 -1.84275 51 ft 21 kts 256°
2026-05-07 19:37 50.77963 -1.84528 50 ft 26 kts 255°
2026-05-07 19:37 50.77917 -1.84812 53 ft 27 kts 255°
2026-05-07 19:37 50.77874 -1.85067 53 ft 25 kts 255°
2026-05-07 19:37 50.77825 -1.85356 49 ft 29 kts 255°
2026-05-07 19:38 50.77783 -1.85601 51 ft 17 kts 255°
2026-05-07 19:38 50.77733 -1.85725 51 ft 10 kts 276°
2026-05-07 19:38 50.77743 -1.85744 48 ft 3 kts 340°
2026-05-07 19:38 50.77763 -1.85712 47 ft 2 kts 72°
2026-05-07 19:39 50.77804 -1.85494 50 ft 67 kts 76°
2026-05-07 19:39 50.78019 -1.84212 50 ft 168 kts 76°
2026-05-07 19:39 50.78358 -1.82193 824 ft 200 kts 77°
2026-05-07 19:39 50.78587 -1.80788 1721 ft 198 kts 77°
2026-05-07 19:40 50.79094 -1.77891 3002 ft 217 kts 71°
2026-05-07 19:40 50.79799 -1.75672 3775 ft 241 kts 61°
2026-05-07 19:40 50.80722 -1.73281 4523 ft 259 kts 59°
2026-05-07 19:40 50.81680 -1.70870 4913 ft 264 kts 59°
2026-05-07 19:41 50.82654 -1.68396 4976 ft 265 kts 59°
2026-05-07 19:41 50.83625 -1.65901 4981 ft 265 kts 59°
2026-05-07 19:41 50.84586 -1.63403 4983 ft 266 kts 60°
2026-05-07 19:41 50.85559 -1.60857 5185 ft 277 kts 60°
2026-05-07 19:42 50.86572 -1.58185 6306 ft 284 kts 59°
2026-05-07 19:42 50.87585 -1.55507 7732 ft 280 kts 59°
2026-05-07 19:42 50.88255 -1.53739 8453 ft 285 kts 59°
2026-05-07 19:42 50.89645 -1.50073 9533 ft 294 kts 58°
2026-05-07 19:43 50.90707 -1.47266 9956 ft 299 kts 58°